Year,Month,Day,Hour,Minute,Value (Times are PST for temperature in C)
2006,05,14,00,00,9.10
2006,05,14,00,01,9.00
2006,05,14,00,02,9.00
2006,05,14,00,03,9.00
2006,05,14,00,04,9.00
2006,05,14,00,05,9.00
2006,05,14,00,06,9.00
2006,05,14,00,07,9.00
2006,05,14,00,08,9.00
2006,05,14,00,09,9.00
2006,05,14,00,10,8.90
2006,05,14,00,11,8.90
2006,05,14,00,12,8.90
2006,05,14,00,13,8.90
2006,05,14,00,14,8.90
2006,05,14,00,15,8.90
2006,05,14,00,16,8.80
2006,05,14,00,17,8.80
2006,05,14,00,18,8.80
2006,05,14,00,19,8.80
2006,05,14,00,20,8.70
2006,05,14,00,21,8.70
2006,05,14,00,22,8.70
2006,05,14,00,23,8.70
2006,05,14,00,24,8.70
2006,05,14,00,25,8.70
2006,05,14,00,26,8.70
2006,05,14,00,27,8.70
2006,05,14,00,28,8.70
2006,05,14,00,29,8.70
2006,05,14,00,30,8.70
2006,05,14,00,31,8.70
2006,05,14,00,32,8.70
2006,05,14,00,33,8.70
2006,05,14,00,34,8.60
2006,05,14,00,35,8.60
2006,05,14,00,36,8.60
2006,05,14,00,37,8.60
2006,05,14,00,38,8.50
2006,05,14,00,39,8.50
2006,05,14,00,40,8.50
2006,05,14,00,41,8.40
2006,05,14,00,42,8.40
2006,05,14,00,43,8.40
2006,05,14,00,44,8.40
2006,05,14,00,45,8.30
2006,05,14,00,46,8.30
2006,05,14,00,47,8.30
2006,05,14,00,48,8.30
2006,05,14,00,49,8.20
2006,05,14,00,50,8.20
2006,05,14,00,51,8.20
2006,05,14,00,52,8.20
2006,05,14,00,53,8.20
2006,05,14,00,54,8.20
2006,05,14,00,55,8.20
2006,05,14,00,56,8.20
2006,05,14,00,57,8.20
2006,05,14,00,58,8.10
2006,05,14,00,59,8.10
2006,05,14,01,00,8.10
2006,05,14,01,01,8.00
2006,05,14,01,02,8.00
2006,05,14,01,03,8.00
2006,05,14,01,04,7.90
2006,05,14,01,05,7.90
2006,05,14,01,06,7.90
2006,05,14,01,07,7.90
2006,05,14,01,08,7.80
2006,05,14,01,09,7.80
2006,05,14,01,10,7.80
2006,05,14,01,11,7.80
2006,05,14,01,12,7.80
2006,05,14,01,13,7.70
2006,05,14,01,14,7.70
2006,05,14,01,15,7.70
2006,05,14,01,16,7.70
2006,05,14,01,17,7.60
2006,05,14,01,18,7.60
2006,05,14,01,19,7.60
2006,05,14,01,20,7.60
2006,05,14,01,21,7.60
2006,05,14,01,22,7.60
2006,05,14,01,23,7.60
2006,05,14,01,24,7.60
2006,05,14,01,25,7.60
2006,05,14,01,26,7.50
2006,05,14,01,27,7.50
2006,05,14,01,28,7.50
2006,05,14,01,29,7.50
2006,05,14,01,30,7.40
2006,05,14,01,31,7.40
2006,05,14,01,32,7.40
2006,05,14,01,33,7.40
2006,05,14,01,34,7.30
2006,05,14,01,35,7.30
2006,05,14,01,36,7.30
2006,05,14,01,37,7.30
2006,05,14,01,38,7.30
2006,05,14,01,39,7.30
2006,05,14,01,40,7.30
2006,05,14,01,41,7.20
2006,05,14,01,42,7.20
2006,05,14,01,43,7.20
2006,05,14,01,44,7.10
2006,05,14,01,45,7.10
2006,05,14,01,46,7.10
2006,05,14,01,47,7.10
2006,05,14,01,48,7.00
2006,05,14,01,49,7.00
2006,05,14,01,50,7.00
2006,05,14,01,51,7.00
2006,05,14,01,52,7.00
2006,05,14,01,53,7.00
2006,05,14,01,54,6.90
2006,05,14,01,55,6.90
2006,05,14,01,56,6.90
2006,05,14,01,57,7.00
2006,05,14,01,58,7.00
2006,05,14,01,59,7.00
2006,05,14,02,00,7.00
2006,05,14,02,01,6.90
2006,05,14,02,02,6.90
2006,05,14,02,03,6.90
2006,05,14,02,04,6.90
2006,05,14,02,05,6.90
2006,05,14,02,06,6.90
2006,05,14,02,07,6.90
2006,05,14,02,08,6.80
2006,05,14,02,09,6.80
2006,05,14,02,10,6.80
2006,05,14,02,11,6.80
2006,05,14,02,12,6.80
2006,05,14,02,13,6.80
2006,05,14,02,14,6.80
2006,05,14,02,15,6.80
2006,05,14,02,16,6.80
2006,05,14,02,17,6.80
2006,05,14,02,18,6.80
2006,05,14,02,19,6.80
2006,05,14,02,20,6.80
2006,05,14,02,21,6.80
2006,05,14,02,22,6.80
2006,05,14,02,23,6.70
2006,05,14,02,24,6.70
2006,05,14,02,25,6.70
2006,05,14,02,26,6.60
2006,05,14,02,27,6.60
2006,05,14,02,28,6.60
2006,05,14,02,29,6.50
2006,05,14,02,30,6.40
2006,05,14,02,31,6.40
2006,05,14,02,32,6.40
2006,05,14,02,33,6.40
2006,05,14,02,34,6.40
2006,05,14,02,35,6.40
2006,05,14,02,36,6.30
2006,05,14,02,37,6.30
2006,05,14,02,38,6.30
2006,05,14,02,39,6.30
2006,05,14,02,40,6.20
2006,05,14,02,41,6.20
2006,05,14,02,42,6.20
2006,05,14,02,43,6.20
2006,05,14,02,44,6.20
2006,05,14,02,45,6.20
2006,05,14,02,46,6.20
2006,05,14,02,47,6.20
2006,05,14,02,48,6.20
2006,05,14,02,49,6.20
2006,05,14,02,50,6.20
2006,05,14,02,51,6.20
2006,05,14,02,52,6.20
2006,05,14,02,53,6.20
2006,05,14,02,54,6.20
2006,05,14,02,55,6.20
2006,05,14,02,56,6.20
2006,05,14,02,57,6.20
2006,05,14,02,58,6.20
2006,05,14,02,59,6.10
2006,05,14,03,00,6.10
2006,05,14,03,01,6.10
2006,05,14,03,02,6.10
2006,05,14,03,03,6.10
2006,05,14,03,04,6.10
2006,05,14,03,05,6.10
2006,05,14,03,06,6.10
2006,05,14,03,07,6.10
2006,05,14,03,08,6.10
2006,05,14,03,09,6.10
2006,05,14,03,10,6.10
2006,05,14,03,11,6.10
2006,05,14,03,12,6.00
2006,05,14,03,13,6.00
2006,05,14,03,14,6.00
2006,05,14,03,15,6.00
2006,05,14,03,16,6.00
2006,05,14,03,17,6.00
2006,05,14,03,18,6.00
2006,05,14,03,19,5.90
2006,05,14,03,20,5.90
2006,05,14,03,21,5.90
2006,05,14,03,22,5.90
2006,05,14,03,23,5.90
2006,05,14,03,24,5.90
2006,05,14,03,25,5.90
2006,05,14,03,26,5.90
2006,05,14,03,27,5.90
2006,05,14,03,28,5.90
2006,05,14,03,29,5.90
2006,05,14,03,30,5.90
2006,05,14,03,31,5.90
2006,05,14,03,32,5.80
2006,05,14,03,33,5.80
2006,05,14,03,34,5.80
2006,05,14,03,35,5.80
2006,05,14,03,36,5.80
2006,05,14,03,37,5.90
2006,05,14,03,38,5.90
2006,05,14,03,39,5.90
2006,05,14,03,40,5.80
2006,05,14,03,41,5.80
2006,05,14,03,42,5.80
2006,05,14,03,43,5.80
2006,05,14,03,44,5.80
2006,05,14,03,45,5.80
2006,05,14,03,46,5.80
2006,05,14,03,47,5.80
2006,05,14,03,48,5.80
2006,05,14,03,49,5.80
2006,05,14,03,50,5.80
2006,05,14,03,51,5.80
2006,05,14,03,52,5.80
2006,05,14,03,53,5.80
2006,05,14,03,54,5.80
2006,05,14,03,55,5.80
2006,05,14,03,56,5.70
2006,05,14,03,57,5.70
2006,05,14,03,58,5.70
2006,05,14,03,59,5.70
2006,05,14,04,00,5.70
2006,05,14,04,01,5.70
2006,05,14,04,02,5.70
2006,05,14,04,03,5.70
2006,05,14,04,04,5.70
2006,05,14,04,05,5.70
2006,05,14,04,06,5.70
2006,05,14,04,07,5.70
2006,05,14,04,08,5.70
2006,05,14,04,09,5.60
2006,05,14,04,10,5.60
2006,05,14,04,11,5.60
2006,05,14,04,12,5.60
2006,05,14,04,13,5.50
2006,05,14,04,14,5.50
2006,05,14,04,15,5.50
2006,05,14,04,16,5.50
2006,05,14,04,17,5.50
2006,05,14,04,18,5.50
2006,05,14,04,19,5.40
2006,05,14,04,20,5.40
2006,05,14,04,21,5.40
2006,05,14,04,22,5.40
2006,05,14,04,23,5.30
2006,05,14,04,24,5.30
2006,05,14,04,25,5.30
2006,05,14,04,26,5.30
2006,05,14,04,27,5.30
2006,05,14,04,28,5.30
2006,05,14,04,29,5.30
2006,05,14,04,30,5.30
2006,05,14,04,31,5.30
2006,05,14,04,32,5.30
2006,05,14,04,33,5.20
2006,05,14,04,34,5.20
2006,05,14,04,35,5.20
2006,05,14,04,36,5.20
2006,05,14,04,37,5.20
2006,05,14,04,38,5.20
2006,05,14,04,39,5.20
2006,05,14,04,40,5.20
2006,05,14,04,41,5.20
2006,05,14,04,42,5.20
2006,05,14,04,43,5.10
2006,05,14,04,44,5.10
2006,05,14,04,45,5.10
2006,05,14,04,46,5.10
2006,05,14,04,47,5.10
2006,05,14,04,48,5.10
2006,05,14,04,49,5.10
2006,05,14,04,50,5.10
2006,05,14,04,51,5.10
2006,05,14,04,52,5.10
2006,05,14,04,53,5.10
2006,05,14,04,54,5.10
2006,05,14,04,55,5.10
2006,05,14,04,56,5.00
2006,05,14,04,57,4.90
2006,05,14,04,58,4.90
2006,05,14,04,59,4.90
2006,05,14,05,00,4.90
2006,05,14,05,01,4.90
2006,05,14,05,02,4.90
2006,05,14,05,03,4.90
2006,05,14,05,04,4.90
2006,05,14,05,05,4.90
2006,05,14,05,06,4.90
2006,05,14,05,07,4.90
2006,05,14,05,08,4.90
2006,05,14,05,09,4.90
2006,05,14,05,10,4.90
2006,05,14,05,11,4.90
2006,05,14,05,12,4.80
2006,05,14,05,13,4.80
2006,05,14,05,14,4.80
2006,05,14,05,15,4.80
2006,05,14,05,16,4.80
2006,05,14,05,17,4.80
2006,05,14,05,18,4.80
2006,05,14,05,19,4.80
2006,05,14,05,20,4.80
2006,05,14,05,21,4.80
2006,05,14,05,22,4.80
2006,05,14,05,23,4.70
2006,05,14,05,24,4.70
2006,05,14,05,25,4.70
2006,05,14,05,26,4.70
2006,05,14,05,27,4.70
2006,05,14,05,28,4.70
2006,05,14,05,29,4.70
2006,05,14,05,30,4.70
2006,05,14,05,31,4.70
2006,05,14,05,32,4.70
2006,05,14,05,33,4.70
2006,05,14,05,34,4.70
2006,05,14,05,35,4.70
2006,05,14,05,36,4.70
2006,05,14,05,37,4.70
2006,05,14,05,38,4.70
2006,05,14,05,39,4.80
2006,05,14,05,40,4.80
2006,05,14,05,41,4.80
2006,05,14,05,42,4.80
2006,05,14,05,43,4.80
2006,05,14,05,44,4.80
2006,05,14,05,45,4.80
2006,05,14,05,46,4.70
2006,05,14,05,47,4.70
2006,05,14,05,48,4.70
2006,05,14,05,49,4.70
2006,05,14,05,50,4.70
2006,05,14,05,51,4.70
2006,05,14,05,52,4.60
2006,05,14,05,53,4.60
2006,05,14,05,54,4.60
2006,05,14,05,55,4.60
2006,05,14,05,56,4.60
2006,05,14,05,57,4.60
2006,05,14,05,58,4.60
2006,05,14,05,59,4.60
2006,05,14,06,00,4.60
2006,05,14,06,01,4.60
2006,05,14,06,02,4.60
2006,05,14,06,03,4.60
2006,05,14,06,04,4.60
2006,05,14,06,05,4.60
2006,05,14,06,06,4.60
2006,05,14,06,07,4.60
2006,05,14,06,08,4.60
2006,05,14,06,09,4.60
2006,05,14,06,10,4.60
2006,05,14,06,11,4.60
2006,05,14,06,12,4.60
2006,05,14,06,13,4.70
2006,05,14,06,14,4.70
2006,05,14,06,15,4.70
2006,05,14,06,16,4.70
2006,05,14,06,17,4.70
2006,05,14,06,18,4.80
2006,05,14,06,19,4.80
2006,05,14,06,20,4.90
2006,05,14,06,21,4.90
2006,05,14,06,22,4.90
2006,05,14,06,23,4.90
2006,05,14,06,24,5.00
2006,05,14,06,25,5.10
2006,05,14,06,26,5.10
2006,05,14,06,27,5.20
2006,05,14,06,28,5.30
2006,05,14,06,29,5.30
2006,05,14,06,30,5.30
2006,05,14,06,31,5.40
2006,05,14,06,32,5.40
2006,05,14,06,33,5.50
2006,05,14,06,34,5.50
2006,05,14,06,35,5.60
2006,05,14,06,36,5.70
2006,05,14,06,37,5.70
2006,05,14,06,38,5.70
2006,05,14,06,39,5.80
2006,05,14,06,40,5.90
2006,05,14,06,41,5.90
2006,05,14,06,42,6.00
2006,05,14,06,43,6.00
2006,05,14,06,44,6.10
2006,05,14,06,45,6.20
2006,05,14,06,46,6.20
2006,05,14,06,47,6.20
2006,05,14,06,48,6.20
2006,05,14,06,49,6.20
2006,05,14,06,50,6.30
2006,05,14,06,51,6.30
2006,05,14,06,52,6.30
2006,05,14,06,53,6.40
2006,05,14,06,54,6.40
2006,05,14,06,55,6.40
2006,05,14,06,56,6.50
2006,05,14,06,57,6.60
2006,05,14,06,58,6.60
2006,05,14,06,59,6.70
2006,05,14,07,00,6.80
2006,05,14,07,01,7.00
2006,05,14,07,02,7.10
2006,05,14,07,03,7.30
2006,05,14,07,04,7.40
2006,05,14,07,05,7.50
2006,05,14,07,06,7.70
2006,05,14,07,07,7.80
2006,05,14,07,08,7.90
2006,05,14,07,09,8.00
2006,05,14,07,10,8.10
2006,05,14,07,11,8.20
2006,05,14,07,12,8.30
2006,05,14,07,13,8.40
2006,05,14,07,14,8.50
2006,05,14,07,15,8.60
2006,05,14,07,16,8.70
2006,05,14,07,17,8.70
2006,05,14,07,18,8.70
2006,05,14,07,19,8.80
2006,05,14,07,20,8.90
2006,05,14,07,21,8.90
2006,05,14,07,22,9.00
2006,05,14,07,23,9.00
2006,05,14,07,24,9.00
2006,05,14,07,25,9.00
2006,05,14,07,26,9.00
2006,05,14,07,27,9.00
2006,05,14,07,28,9.00
2006,05,14,07,29,9.00
2006,05,14,07,30,9.10
2006,05,14,07,31,9.10
2006,05,14,07,32,9.10
2006,05,14,07,33,9.10
2006,05,14,07,34,9.10
2006,05,14,07,35,9.20
2006,05,14,07,36,9.20
2006,05,14,07,37,9.20
2006,05,14,07,38,9.20
2006,05,14,07,39,9.20
2006,05,14,07,40,9.30
2006,05,14,07,41,9.40
2006,05,14,07,42,9.40
2006,05,14,07,43,9.50
2006,05,14,07,44,9.60
2006,05,14,07,45,9.70
2006,05,14,07,46,9.80
2006,05,14,07,47,9.90
2006,05,14,07,48,10.10
2006,05,14,07,49,10.20
2006,05,14,07,50,10.30
2006,05,14,07,51,10.50
2006,05,14,07,52,10.60
2006,05,14,07,53,10.70
2006,05,14,07,54,10.80
2006,05,14,07,55,10.90
2006,05,14,07,56,11.00
2006,05,14,07,57,11.10
2006,05,14,07,58,11.20
2006,05,14,07,59,11.20
2006,05,14,08,00,11.30
2006,05,14,08,01,11.40
2006,05,14,08,02,11.40
2006,05,14,08,03,11.50
2006,05,14,08,04,11.60
2006,05,14,08,05,11.60
2006,05,14,08,06,11.60
2006,05,14,08,07,11.70
2006,05,14,08,08,11.80
2006,05,14,08,09,11.80
2006,05,14,08,10,11.80
2006,05,14,08,11,11.90
2006,05,14,08,12,11.90
2006,05,14,08,13,12.00
2006,05,14,08,14,12.10
2006,05,14,08,15,12.10
2006,05,14,08,16,12.10
2006,05,14,08,17,12.20
2006,05,14,08,18,12.20
2006,05,14,08,19,12.20
2006,05,14,08,20,12.20
2006,05,14,08,21,12.20
2006,05,14,08,22,12.30
2006,05,14,08,23,12.30
2006,05,14,08,24,12.30
2006,05,14,08,25,12.30
2006,05,14,08,26,12.30
2006,05,14,08,27,12.30
2006,05,14,08,28,12.40
2006,05,14,08,29,12.50
2006,05,14,08,30,12.60
2006,05,14,08,31,12.70
2006,05,14,08,32,12.70
2006,05,14,08,33,12.70
2006,05,14,08,34,12.80
2006,05,14,08,35,12.80
2006,05,14,08,36,12.80
2006,05,14,08,37,12.80
2006,05,14,08,38,12.80
2006,05,14,08,39,12.90
2006,05,14,08,40,13.00
2006,05,14,08,41,13.00
2006,05,14,08,42,13.10
2006,05,14,08,43,13.10
2006,05,14,08,44,13.10
2006,05,14,08,45,13.10
2006,05,14,08,46,13.20
2006,05,14,08,47,13.20
2006,05,14,08,48,13.30
2006,05,14,08,49,13.30
2006,05,14,08,50,13.30
2006,05,14,08,51,13.30
2006,05,14,08,52,13.40
2006,05,14,08,53,13.50
2006,05,14,08,54,13.50
2006,05,14,08,55,13.50
2006,05,14,08,56,13.50
2006,05,14,08,57,13.60
2006,05,14,08,58,13.70
2006,05,14,08,59,13.80
2006,05,14,09,00,13.70
2006,05,14,09,01,13.70
2006,05,14,09,02,13.80
2006,05,14,09,03,13.80
2006,05,14,09,04,13.90
2006,05,14,09,05,14.00
2006,05,14,09,06,14.00
2006,05,14,09,07,14.10
2006,05,14,09,08,14.10
2006,05,14,09,09,14.00
2006,05,14,09,10,14.00
2006,05,14,09,11,14.00
2006,05,14,09,12,13.90
2006,05,14,09,13,13.90
2006,05,14,09,14,13.90
2006,05,14,09,15,13.90
2006,05,14,09,16,13.90
2006,05,14,09,17,13.90
2006,05,14,09,18,13.90
2006,05,14,09,19,13.80
2006,05,14,09,20,13.80
2006,05,14,09,21,13.80
2006,05,14,09,22,13.70
2006,05,14,09,23,13.70
2006,05,14,09,24,13.70
2006,05,14,09,25,13.70
2006,05,14,09,26,13.70
2006,05,14,09,27,13.70
2006,05,14,09,28,13.70
2006,05,14,09,29,13.70
2006,05,14,09,30,13.70
2006,05,14,09,31,13.60
2006,05,14,09,32,13.60
2006,05,14,09,33,13.70
2006,05,14,09,34,13.70
2006,05,14,09,35,13.70
2006,05,14,09,36,13.70
2006,05,14,09,37,13.70
2006,05,14,09,38,13.70
2006,05,14,09,39,13.60
2006,05,14,09,40,13.50
2006,05,14,09,41,13.50
2006,05,14,09,42,13.40
2006,05,14,09,43,13.30
2006,05,14,09,44,13.30
2006,05,14,09,45,13.30
2006,05,14,09,46,13.30
2006,05,14,09,47,13.20
2006,05,14,09,48,13.20
2006,05,14,09,49,13.20
2006,05,14,09,50,13.20
2006,05,14,09,51,13.20
2006,05,14,09,52,13.20
2006,05,14,09,53,13.30
2006,05,14,09,54,13.30
2006,05,14,09,55,13.30
2006,05,14,09,56,13.40
2006,05,14,09,57,13.40
2006,05,14,09,58,13.40
2006,05,14,09,59,13.40
2006,05,14,10,00,13.40
2006,05,14,10,01,13.40
2006,05,14,10,02,13.50
2006,05,14,10,03,13.60
2006,05,14,10,04,13.60
2006,05,14,10,05,13.60
2006,05,14,10,06,13.60
2006,05,14,10,07,13.60
2006,05,14,10,08,13.60
2006,05,14,10,09,13.50
2006,05,14,10,10,13.50
2006,05,14,10,11,13.40
2006,05,14,10,12,13.40
2006,05,14,10,13,13.40
2006,05,14,10,14,13.40
2006,05,14,10,15,13.40
2006,05,14,10,16,13.30
2006,05,14,10,17,13.30
2006,05,14,10,18,13.30
2006,05,14,10,19,13.40
2006,05,14,10,20,13.40
2006,05,14,10,21,13.50
2006,05,14,10,22,13.50
2006,05,14,10,23,13.60
2006,05,14,10,24,13.60
2006,05,14,10,25,13.70
2006,05,14,10,26,13.70
2006,05,14,10,27,13.90
2006,05,14,10,28,14.00
2006,05,14,10,29,14.20
2006,05,14,10,30,14.30
2006,05,14,10,31,14.40
2006,05,14,10,32,14.40
2006,05,14,10,33,14.40
2006,05,14,10,34,14.40
2006,05,14,10,35,14.40
2006,05,14,10,36,14.40
2006,05,14,10,37,14.50
2006,05,14,10,38,14.60
2006,05,14,10,39,14.50
2006,05,14,10,40,14.50
2006,05,14,10,41,14.50
2006,05,14,10,42,14.50
2006,05,14,10,43,14.50
2006,05,14,10,44,14.60
2006,05,14,10,45,14.80
2006,05,14,10,46,14.80
2006,05,14,10,47,14.80
2006,05,14,10,48,14.80
2006,05,14,10,49,14.90
2006,05,14,10,50,15.00
2006,05,14,10,51,15.00
2006,05,14,10,52,15.10
2006,05,14,10,53,15.20
2006,05,14,10,54,15.30
2006,05,14,10,55,15.30
2006,05,14,10,56,15.30
2006,05,14,10,57,15.20
2006,05,14,10,58,15.20
2006,05,14,10,59,15.20
2006,05,14,11,00,15.20
2006,05,14,11,01,15.20
2006,05,14,11,02,15.20
2006,05,14,11,03,15.30
2006,05,14,11,04,15.30
2006,05,14,11,05,15.30
2006,05,14,11,06,15.20
2006,05,14,11,07,15.20
2006,05,14,11,08,15.30
2006,05,14,11,09,15.20
2006,05,14,11,10,15.20
2006,05,14,11,11,15.10
2006,05,14,11,12,15.20
2006,05,14,11,13,15.20
2006,05,14,11,14,15.30
2006,05,14,11,15,15.30
2006,05,14,11,16,15.30
2006,05,14,11,17,15.30
2006,05,14,11,18,15.30
2006,05,14,11,19,15.40
2006,05,14,11,20,15.50
2006,05,14,11,21,15.50
2006,05,14,11,22,15.40
2006,05,14,11,23,15.40
2006,05,14,11,24,15.40
2006,05,14,11,25,15.30
2006,05,14,11,26,15.30
2006,05,14,11,27,15.40
2006,05,14,11,28,15.40
2006,05,14,11,29,15.40
2006,05,14,11,30,15.50
2006,05,14,11,31,15.70
2006,05,14,11,32,15.70
2006,05,14,11,33,15.70
2006,05,14,11,34,15.70
2006,05,14,11,35,15.60
2006,05,14,11,36,15.60
2006,05,14,11,37,15.70
2006,05,14,11,38,15.70
2006,05,14,11,39,15.70
2006,05,14,11,40,15.60
2006,05,14,11,41,15.60
2006,05,14,11,42,15.70
2006,05,14,11,43,15.70
2006,05,14,11,44,15.70
2006,05,14,11,45,15.80
2006,05,14,11,46,15.80
2006,05,14,11,47,15.80
2006,05,14,11,48,15.80
2006,05,14,11,49,15.80
2006,05,14,11,50,15.80
2006,05,14,11,51,15.80
2006,05,14,11,52,15.80
2006,05,14,11,53,15.80
2006,05,14,11,54,15.80
2006,05,14,11,55,15.90
2006,05,14,11,56,15.90
2006,05,14,11,57,15.90
2006,05,14,11,58,15.90
2006,05,14,11,59,15.90
2006,05,14,12,00,16.00
2006,05,14,12,01,16.20
2006,05,14,12,02,16.10
2006,05,14,12,03,16.10
2006,05,14,12,04,16.20
2006,05,14,12,05,16.20
2006,05,14,12,06,16.20
2006,05,14,12,07,16.20
2006,05,14,12,08,16.30
2006,05,14,12,09,16.20
2006,05,14,12,10,16.10
2006,05,14,12,11,16.20
2006,05,14,12,12,16.20
2006,05,14,12,13,16.10
2006,05,14,12,14,16.20
2006,05,14,12,15,16.30
2006,05,14,12,16,16.30
2006,05,14,12,17,16.40
2006,05,14,12,18,16.40
2006,05,14,12,19,16.50
2006,05,14,12,20,16.60
2006,05,14,12,21,16.60
2006,05,14,12,22,16.50
2006,05,14,12,23,16.40
2006,05,14,12,24,16.50
2006,05,14,12,25,16.60
2006,05,14,12,26,16.60
2006,05,14,12,27,16.60
2006,05,14,12,28,16.70
2006,05,14,12,29,16.70
2006,05,14,12,30,16.70
2006,05,14,12,31,16.70
2006,05,14,12,32,16.90
2006,05,14,12,33,17.00
2006,05,14,12,34,17.00
2006,05,14,12,35,17.00
2006,05,14,12,36,16.90
2006,05,14,12,37,16.80
2006,05,14,12,38,16.90
2006,05,14,12,39,16.90
2006,05,14,12,40,17.00
2006,05,14,12,41,17.00
2006,05,14,12,42,17.00
2006,05,14,12,43,17.00
2006,05,14,12,44,17.00
2006,05,14,12,45,17.10
2006,05,14,12,46,17.10
2006,05,14,12,47,17.10
2006,05,14,12,48,17.20
2006,05,14,12,49,17.30
2006,05,14,12,50,17.30
2006,05,14,12,51,17.30
2006,05,14,12,52,17.30
2006,05,14,12,53,17.30
2006,05,14,12,54,17.40
2006,05,14,12,55,17.50
2006,05,14,12,56,17.70
2006,05,14,12,57,17.60
2006,05,14,12,58,17.50
2006,05,14,12,59,17.40
2006,05,14,13,00,17.40
2006,05,14,13,01,17.40
2006,05,14,13,02,17.40
2006,05,14,13,03,17.30
2006,05,14,13,04,17.30
2006,05,14,13,05,17.40
2006,05,14,13,06,17.40
2006,05,14,13,07,17.50
2006,05,14,13,08,17.50
2006,05,14,13,09,17.40
2006,05,14,13,10,17.30
2006,05,14,13,11,17.30
2006,05,14,13,12,17.40
2006,05,14,13,13,17.40
2006,05,14,13,14,17.30
2006,05,14,13,15,17.40
2006,05,14,13,16,17.40
2006,05,14,13,17,17.40
2006,05,14,13,18,17.40
2006,05,14,13,19,17.50
2006,05,14,13,20,17.50
2006,05,14,13,21,17.40
2006,05,14,13,22,17.40
2006,05,14,13,23,17.40
2006,05,14,13,24,17.50
2006,05,14,13,25,17.50
2006,05,14,13,26,17.50
2006,05,14,13,27,17.50
2006,05,14,13,28,17.50
2006,05,14,13,29,17.40
2006,05,14,13,30,17.40
2006,05,14,13,31,17.40
2006,05,14,13,32,17.50
2006,05,14,13,33,17.50
2006,05,14,13,34,17.50
2006,05,14,13,35,17.60
2006,05,14,13,36,17.50
2006,05,14,13,37,17.50
2006,05,14,13,38,17.60
2006,05,14,13,39,17.70
2006,05,14,13,40,17.80
2006,05,14,13,41,18.00
2006,05,14,13,42,18.10
2006,05,14,13,43,18.10
2006,05,14,13,44,18.10
2006,05,14,13,45,18.00
2006,05,14,13,46,17.90
2006,05,14,13,47,17.90
2006,05,14,13,48,17.90
2006,05,14,13,49,17.90
2006,05,14,13,50,17.90
2006,05,14,13,51,17.90
2006,05,14,13,52,17.90
2006,05,14,13,53,17.80
2006,05,14,13,54,17.70
2006,05,14,13,55,17.70
2006,05,14,13,56,17.70
2006,05,14,13,57,17.70
2006,05,14,13,58,17.90
2006,05,14,13,59,18.00
2006,05,14,14,00,18.10
2006,05,14,14,01,18.10
2006,05,14,14,02,18.20
2006,05,14,14,03,18.20
2006,05,14,14,04,18.20
2006,05,14,14,05,18.30
2006,05,14,14,06,18.40
2006,05,14,14,07,18.40
2006,05,14,14,08,18.30
2006,05,14,14,09,18.30
2006,05,14,14,10,18.30
2006,05,14,14,11,18.20
2006,05,14,14,12,18.20
2006,05,14,14,13,18.20
2006,05,14,14,14,18.20
2006,05,14,14,15,18.20
2006,05,14,14,16,18.20
2006,05,14,14,17,18.20
2006,05,14,14,18,18.30
2006,05,14,14,19,18.30
2006,05,14,14,20,18.20
2006,05,14,14,21,18.10
2006,05,14,14,22,18.10
2006,05,14,14,23,18.10
2006,05,14,14,24,18.20
2006,05,14,14,25,18.20
2006,05,14,14,26,18.20
2006,05,14,14,27,18.30
2006,05,14,14,28,18.30
2006,05,14,14,29,18.30
2006,05,14,14,30,18.30
2006,05,14,14,31,18.40
2006,05,14,14,32,18.50
2006,05,14,14,33,18.60
2006,05,14,14,34,18.70
2006,05,14,14,35,18.70
2006,05,14,14,36,18.60
2006,05,14,14,37,18.50
2006,05,14,14,38,18.40
2006,05,14,14,39,18.50
2006,05,14,14,40,18.50
2006,05,14,14,41,18.60
2006,05,14,14,42,18.70
2006,05,14,14,43,18.80
2006,05,14,14,44,18.70
2006,05,14,14,45,18.80
2006,05,14,14,46,18.80
2006,05,14,14,47,18.80
2006,05,14,14,48,18.90
2006,05,14,14,49,18.80
2006,05,14,14,50,18.90
2006,05,14,14,51,18.90
2006,05,14,14,52,18.90
2006,05,14,14,53,18.70
2006,05,14,14,54,18.70
2006,05,14,14,55,18.70
2006,05,14,14,56,18.70
2006,05,14,14,57,18.70
2006,05,14,14,58,18.80
2006,05,14,14,59,18.90
2006,05,14,15,00,19.00
2006,05,14,15,01,19.10
2006,05,14,15,02,19.00
2006,05,14,15,03,18.90
2006,05,14,15,04,18.90
2006,05,14,15,05,18.80
2006,05,14,15,06,18.70
2006,05,14,15,07,18.70
2006,05,14,15,08,18.80
2006,05,14,15,09,19.00
2006,05,14,15,10,19.10
2006,05,14,15,11,19.10
2006,05,14,15,12,19.10
2006,05,14,15,13,19.00
2006,05,14,15,14,18.90
2006,05,14,15,15,18.90
2006,05,14,15,16,18.90
2006,05,14,15,17,19.00
2006,05,14,15,18,19.10
2006,05,14,15,19,19.10
2006,05,14,15,20,19.20
2006,05,14,15,21,19.20
2006,05,14,15,22,19.10
2006,05,14,15,23,19.10
2006,05,14,15,24,19.10
2006,05,14,15,25,19.10
2006,05,14,15,26,19.10
2006,05,14,15,27,19.10
2006,05,14,15,28,19.20
2006,05,14,15,29,19.20
2006,05,14,15,30,19.20
2006,05,14,15,31,19.20
2006,05,14,15,32,19.30
2006,05,14,15,33,19.30
2006,05,14,15,34,19.30
2006,05,14,15,35,19.40
2006,05,14,15,36,19.40
2006,05,14,15,37,19.50
2006,05,14,15,38,19.70
2006,05,14,15,39,19.70
2006,05,14,15,40,19.70
2006,05,14,15,41,19.60
2006,05,14,15,42,19.50
2006,05,14,15,43,19.40
2006,05,14,15,44,19.40
2006,05,14,15,45,19.40
2006,05,14,15,46,19.30
2006,05,14,15,47,19.30
2006,05,14,15,48,19.30
2006,05,14,15,49,19.30
2006,05,14,15,50,19.30
2006,05,14,15,51,19.30
2006,05,14,15,52,19.40
2006,05,14,15,53,19.40
2006,05,14,15,54,19.40
2006,05,14,15,55,19.50
2006,05,14,15,56,19.60
2006,05,14,15,57,19.60
2006,05,14,15,58,19.50
2006,05,14,15,59,19.50
2006,05,14,16,00,19.50
2006,05,14,16,01,19.60
2006,05,14,16,02,19.60
2006,05,14,16,03,19.70
2006,05,14,16,04,19.60
2006,05,14,16,05,19.50
2006,05,14,16,06,19.50
2006,05,14,16,07,19.50
2006,05,14,16,08,19.50
2006,05,14,16,09,19.50
2006,05,14,16,10,19.60
2006,05,14,16,11,19.60
2006,05,14,16,12,19.60
2006,05,14,16,13,19.70
2006,05,14,16,14,19.70
2006,05,14,16,15,19.70
2006,05,14,16,16,19.70
2006,05,14,16,17,19.70
2006,05,14,16,18,19.70
2006,05,14,16,19,19.80
2006,05,14,16,20,19.90
2006,05,14,16,21,19.90
2006,05,14,16,22,19.90
2006,05,14,16,23,19.90
2006,05,14,16,24,19.90
2006,05,14,16,25,19.90
2006,05,14,16,26,19.90
2006,05,14,16,27,19.90
2006,05,14,16,28,19.90
2006,05,14,16,29,19.90
2006,05,14,16,30,19.90
2006,05,14,16,31,19.90
2006,05,14,16,32,19.90
2006,05,14,16,33,19.90
2006,05,14,16,34,19.90
2006,05,14,16,35,19.90
2006,05,14,16,36,19.90
2006,05,14,16,37,20.00
2006,05,14,16,38,20.20
2006,05,14,16,39,20.20
2006,05,14,16,40,20.20
2006,05,14,16,41,20.20
2006,05,14,16,42,20.20
2006,05,14,16,43,20.20
2006,05,14,16,44,20.20
2006,05,14,16,45,20.20
2006,05,14,16,46,20.20
2006,05,14,16,47,20.30
2006,05,14,16,48,20.30
2006,05,14,16,49,20.30
2006,05,14,16,50,20.20
2006,05,14,16,51,20.20
2006,05,14,16,52,20.20
2006,05,14,16,53,20.20
2006,05,14,16,54,20.20
2006,05,14,16,55,20.20
2006,05,14,16,56,20.20
2006,05,14,16,57,20.20
2006,05,14,16,58,20.10
2006,05,14,16,59,20.10
2006,05,14,17,00,20.10
2006,05,14,17,01,20.10
2006,05,14,17,02,20.10
2006,05,14,17,03,20.10
2006,05,14,17,04,20.10
2006,05,14,17,05,20.10
2006,05,14,17,06,20.10
2006,05,14,17,07,20.10
2006,05,14,17,08,20.00
2006,05,14,17,09,19.90
2006,05,14,17,10,19.90
2006,05,14,17,11,19.90
2006,05,14,17,12,19.90
2006,05,14,17,13,20.00
2006,05,14,17,14,20.10
2006,05,14,17,15,20.10
2006,05,14,17,16,20.00
2006,05,14,17,17,20.10
2006,05,14,17,18,20.20
2006,05,14,17,19,20.20
2006,05,14,17,20,20.20
2006,05,14,17,21,20.20
2006,05,14,17,22,20.30
2006,05,14,17,23,20.30
2006,05,14,17,24,20.30
2006,05,14,17,25,20.30
2006,05,14,17,26,20.30
2006,05,14,17,27,20.40
2006,05,14,17,28,20.40
2006,05,14,17,29,20.50
2006,05,14,17,30,20.50
2006,05,14,17,31,20.40
2006,05,14,17,32,20.40
2006,05,14,17,33,20.30
2006,05,14,17,34,20.30
2006,05,14,17,35,20.40
2006,05,14,17,36,20.50
2006,05,14,17,37,20.30
2006,05,14,17,38,19.80
2006,05,14,17,39,19.60